Time,TemperatureF,DewpointF,PressureIn,WindDirection,WindDirectionDegrees,WindSpeedMPH,WindSpeedGustMPH,Humidity,HourlyPrecipIn,Conditions,Clouds,dailyrainin,SoftwareType,DateUTC
2013-02-25 00:02:00,27.0,25.0,-100.00,South,170,2.0,3.0,89,0.00,,,0.00,,2013-02-25 06:02:00,
2013-02-25 00:11:00,27.0,25.0,-100.00,South,175,2.0,3.0,90,0.00,,,0.00,,2013-02-25 06:11:00,
2013-02-25 00:21:00,27.0,25.0,-100.00,South,190,1.0,2.0,92,0.00,,,0.00,,2013-02-25 06:21:00,
2013-02-25 00:31:00,27.0,25.0,-100.00,WSW,245,1.0,1.0,92,0.00,,,0.00,,2013-02-25 06:31:00,
2013-02-25 00:41:00,26.0,25.0,-100.00,West,265,2.0,2.0,94,0.00,,,0.00,,2013-02-25 06:41:00,
2013-02-25 00:51:00,27.0,25.0,-100.00,WSW,240,2.0,3.0,94,0.00,,,0.00,,2013-02-25 06:51:00,
2013-02-25 01:01:00,27.0,25.0,-100.00,WSW,255,2.0,3.0,94,0.00,,,0.00,,2013-02-25 07:01:00,
2013-02-25 01:11:00,26.0,25.0,-100.00,WSW,255,2.0,3.0,95,0.00,,,0.00,,2013-02-25 07:11:00,
2013-02-25 01:21:00,26.0,25.0,-100.00,SW,220,2.0,2.0,96,0.00,,,0.00,,2013-02-25 07:21:00,
2013-02-25 01:31:00,26.0,25.0,-100.00,WSW,245,1.0,2.0,97,0.00,,,0.00,,2013-02-25 07:31:00,
2013-02-25 01:41:00,26.0,25.0,-100.00,West,265,3.0,3.0,98,0.00,,,0.00,,2013-02-25 07:41:00,
2013-02-25 01:51:00,26.0,25.0,-100.00,West,275,3.0,4.0,97,0.00,,,0.00,,2013-02-25 07:51:00,
2013-02-25 02:01:00,26.0,25.0,-100.00,West,275,4.0,4.0,97,0.00,,,0.00,,2013-02-25 08:01:00,
2013-02-25 02:11:00,26.0,25.0,-100.00,WNW,285,4.0,6.0,98,0.00,,,0.00,,2013-02-25 08:11:00,
2013-02-25 02:21:00,26.0,25.0,-100.00,WNW,290,4.0,6.0,98,0.00,,,0.00,,2013-02-25 08:21:00,
2013-02-25 02:32:00,26.0,25.0,-100.00,WNW,300,5.0,6.0,98,0.00,,,0.00,,2013-02-25 08:32:00,
2013-02-25 02:41:00,25.0,25.0,-100.00,NW,310,6.0,7.0,99,0.00,,,0.00,,2013-02-25 08:41:00,
2013-02-25 02:52:00,25.0,25.0,-100.00,NW,310,4.0,6.0,99,0.00,,,0.00,,2013-02-25 08:52:00,
2013-02-25 04:52:00,24.0,23.0,-100.00,WNW,290,2.0,3.0,99,0.00,,,0.00,,2013-02-25 10:52:00,
2013-02-25 05:01:00,24.0,23.0,-100.00,NW,315,4.0,4.0,99,0.00,,,0.00,,2013-02-25 11:01:00,
2013-02-25 05:11:00,24.0,23.0,-100.00,West,280,1.0,4.0,99,0.00,,,0.00,,2013-02-25 11:11:00,
2013-02-25 05:21:00,24.0,23.0,-100.00,West,280,2.0,3.0,99,0.00,,,0.00,,2013-02-25 11:21:00,
2013-02-25 05:32:00,24.0,23.0,-100.00,WSW,245,2.0,3.0,99,0.00,,,0.00,,2013-02-25 11:32:00,
2013-02-25 05:42:00,24.0,23.0,-100.00,SW,230,3.0,4.0,99,0.00,,,0.00,,2013-02-25 11:42:00,
2013-02-25 05:52:00,24.0,23.0,-100.00,SW,220,3.0,4.0,99,0.00,,,0.00,,2013-02-25 11:52:00,
2013-02-25 06:02:00,24.0,23.0,-100.00,SW,230,2.0,4.0,99,0.00,,,0.00,,2013-02-25 12:02:00,
2013-02-25 06:11:00,24.0,23.0,-100.00,WSW,240,4.0,4.0,99,0.00,,,0.00,,2013-02-25 12:11:00,
2013-02-25 06:21:00,24.0,23.0,-100.00,West,265,3.0,4.0,99,0.00,,,0.00,,2013-02-25 12:21:00,
2013-02-25 06:32:00,24.0,23.0,-100.00,WNW,290,4.0,6.0,99,0.00,,,0.00,,2013-02-25 12:32:00,
2013-02-25 06:42:00,24.0,23.0,-100.00,NW,325,4.0,6.0,99,0.00,,,0.00,,2013-02-25 12:42:00,
2013-02-25 06:53:00,24.0,23.0,-100.00,WNW,295,2.0,5.0,99,0.00,,,0.00,,2013-02-25 12:53:00,
2013-02-25 07:02:00,24.0,23.0,-100.00,West,265,2.0,4.0,99,0.00,,,0.00,,2013-02-25 13:02:00,
2013-02-25 07:12:00,24.0,23.0,-100.00,WSW,255,3.0,4.0,99,0.00,,,0.00,,2013-02-25 13:12:00,
2013-02-25 07:22:00,24.0,23.0,-100.00,WNW,290,2.0,4.0,99,0.00,,,0.00,,2013-02-25 13:22:00,
2013-02-25 07:32:00,24.0,23.0,-100.00,West,280,4.0,4.0,99,0.00,,,0.00,,2013-02-25 13:32:00,
2013-02-25 07:42:00,24.0,23.0,-100.00,West,275,4.0,6.0,99,0.00,,,0.00,,2013-02-25 13:42:00,
2013-02-25 07:52:00,24.0,23.0,-100.00,West,265,4.0,6.0,99,0.00,,,0.00,,2013-02-25 13:52:00,
2013-02-25 08:03:00,24.0,23.0,-100.00,West,270,6.0,7.0,99,0.00,,,0.00,,2013-02-25 14:03:00,
2013-02-25 08:16:00,24.0,23.0,-100.00,WNW,285,7.0,7.0,99,0.00,,,0.00,,2013-02-25 14:16:00,
2013-02-25 08:22:00,24.0,23.0,-100.00,WNW,300,4.0,8.0,99,0.00,,,0.00,,2013-02-25 14:22:00,
2013-02-25 08:32:00,24.0,23.0,-100.00,WNW,295,3.0,6.0,99,0.00,,,0.00,,2013-02-25 14:32:00,
2013-02-25 08:42:00,24.0,23.0,-100.00,WNW,295,2.0,4.0,99,0.00,,,0.00,,2013-02-25 14:42:00,
2013-02-25 08:52:00,24.0,23.0,-100.00,West,265,3.0,6.0,99,0.00,,,0.00,,2013-02-25 14:52:00,
2013-02-25 09:21:00,25.0,25.0,-100.00,WNW,295,2.0,3.0,99,0.00,,,0.00,,2013-02-25 15:21:00,
2013-02-25 09:32:00,25.0,25.0,-100.00,NW,310,4.0,5.0,99,0.00,,,0.00,,2013-02-25 15:32:00,
2013-02-25 09:41:00,25.0,25.0,-100.00,NW,320,3.0,4.0,99,0.00,,,0.00,,2013-02-25 15:41:00,
2013-02-25 09:51:00,25.0,25.0,-100.00,NW,315,3.0,6.0,99,0.00,,,0.00,,2013-02-25 15:51:00,
2013-02-25 10:02:00,25.0,25.0,-100.00,West,275,4.0,4.0,99,0.00,,,0.00,,2013-02-25 16:02:00,
2013-02-25 10:11:00,26.0,25.0,-100.00,WSW,255,3.0,4.0,99,0.00,,,0.00,,2013-02-25 16:11:00,
2013-02-25 10:21:00,26.0,25.0,-100.00,WNW,285,2.0,4.0,99,0.00,,,0.00,,2013-02-25 16:21:00,
2013-02-25 10:51:00,27.0,27.0,-100.00,SW,225,1.0,4.0,99,0.00,,,0.00,,2013-02-25 16:51:00,
2013-02-25 11:01:00,27.0,27.0,-100.00,SSW,205,2.0,3.0,99,0.00,,,0.00,,2013-02-25 17:01:00,
2013-02-25 11:11:00,27.0,27.0,-100.00,South,185,2.0,3.0,99,0.00,,,0.00,,2013-02-25 17:11:00,
2013-02-25 11:21:00,28.0,27.0,-100.00,West,275,3.0,4.0,97,0.00,,,0.00,,2013-02-25 17:21:00,
2013-02-25 11:31:00,29.0,27.0,-100.00,WNW,285,1.0,3.0,94,0.00,,,0.00,,2013-02-25 17:31:00,
2013-02-25 11:41:00,29.0,27.0,-100.00,WNW,285,1.0,3.0,94,0.00,,,0.00,,2013-02-25 17:41:00,
2013-02-25 11:52:00,29.0,27.0,-100.00,WNW,285,1.0,3.0,94,0.00,,,0.00,,2013-02-25 17:52:00,
2013-02-25 12:01:00,29.0,27.0,-100.00,WNW,285,1.0,3.0,94,0.00,,,0.00,,2013-02-25 18:01:00,
2013-02-25 12:12:00,29.0,27.0,-100.00,WNW,285,1.0,3.0,94,0.00,,,0.00,,2013-02-25 18:12:00,
2013-02-25 13:21:00,29.0,27.0,-100.00,NNW,330,4.0,6.0,87,0.00,,,0.00,,2013-02-25 19:21:00,
2013-02-25 13:32:00,30.0,27.0,-100.00,North,0,1.0,6.0,83,0.00,,,0.00,,2013-02-25 19:32:00,
2013-02-25 13:42:00,30.0,25.0,-100.00,NNW,345,4.0,7.0,83,0.00,,,0.00,,2013-02-25 19:42:00,
2013-02-25 13:52:00,29.0,25.0,-100.00,North,0,4.0,8.0,86,0.00,,,0.00,,2013-02-25 19:52:00,
2013-02-25 14:01:00,31.0,27.0,-100.00,NE,45,4.0,9.0,82,0.00,,,0.00,,2013-02-25 20:01:00,
2013-02-25 14:11:00,29.0,25.0,-100.00,East,90,4.0,8.0,84,0.00,,,0.00,,2013-02-25 20:11:00,
2013-02-25 14:21:00,31.0,27.0,-100.00,East,80,2.0,7.0,80,0.00,,,0.00,,2013-02-25 20:21:00,
2013-02-25 14:31:00,31.0,25.0,-100.00,ENE,75,2.0,6.0,80,0.00,,,0.00,,2013-02-25 20:31:00,
2013-02-25 14:41:00,29.0,25.0,-100.00,East,85,4.0,8.0,86,0.00,,,0.00,,2013-02-25 20:41:00,
2013-02-25 14:52:00,31.0,25.0,-100.00,East,80,3.0,7.0,78,0.00,,,0.00,,2013-02-25 20:52:00,
2013-02-25 15:01:00,31.0,25.0,-100.00,NE,35,6.0,9.0,80,0.00,,,0.00,,2013-02-25 21:01:00,
2013-02-25 15:11:00,30.0,25.0,-100.00,NNE,20,4.0,9.0,83,0.00,,,0.00,,2013-02-25 21:11:00,
2013-02-25 15:21:00,31.0,27.0,-100.00,ESE,105,1.0,6.0,81,0.00,,,0.00,,2013-02-25 21:21:00,
2013-02-25 15:31:00,30.0,25.0,-100.00,North,10,4.0,8.0,81,0.00,,,0.00,,2013-02-25 21:31:00,
2013-02-25 15:42:00,32.0,25.0,-100.00,NNE,15,4.0,7.0,75,0.00,,,0.00,,2013-02-25 21:42:00,
2013-02-25 15:51:00,30.0,25.0,-100.00,ENE,65,4.0,8.0,80,0.00,,,0.00,,2013-02-25 21:51:00,
2013-02-25 16:01:00,29.0,25.0,-100.00,East,95,5.0,7.0,84,0.00,,,0.00,,2013-02-25 22:01:00,
2013-02-25 16:11:00,30.0,25.0,-100.00,NE,55,4.0,7.0,81,0.00,,,0.00,,2013-02-25 22:11:00,
2013-02-25 16:21:00,30.0,25.0,-100.00,North,0,4.0,7.0,83,0.00,,,0.00,,2013-02-25 22:21:00,
2013-02-25 16:32:00,29.0,25.0,-100.00,ENE,60,4.0,7.0,81,0.00,,,0.00,,2013-02-25 22:32:00,
2013-02-25 16:42:00,29.0,25.0,-100.00,NE,55,3.0,7.0,83,0.00,,,0.00,,2013-02-25 22:42:00,
2013-02-25 16:51:00,29.0,25.0,-100.00,ENE,60,2.0,7.0,84,0.00,,,0.00,,2013-02-25 22:51:00,
2013-02-25 17:01:00,28.0,25.0,-100.00,North,350,4.0,7.0,87,0.00,,,0.00,,2013-02-25 23:01:00,
2013-02-25 17:11:00,28.0,25.0,-100.00,North,10,5.0,7.0,87,0.00,,,0.00,,2013-02-25 23:11:00,
2013-02-25 17:22:00,27.0,25.0,-100.00,North,0,6.0,8.0,89,0.00,,,0.00,,2013-02-25 23:22:00,
2013-02-25 17:31:00,28.0,25.0,-100.00,North,5,4.0,6.0,88,0.00,,,0.00,,2013-02-25 23:31:00,
2013-02-25 17:41:00,28.0,25.0,-100.00,North,5,3.0,6.0,88,0.00,,,0.00,,2013-02-25 23:41:00,
2013-02-25 17:52:00,28.0,25.0,-100.00,ENE,65,2.0,4.0,88,0.00,,,0.00,,2013-02-25 23:52:00,
2013-02-25 18:01:00,27.0,25.0,-100.00,NE,45,4.0,6.0,89,0.00,,,0.00,,2013-02-26 00:01:00,
2013-02-25 18:11:00,27.0,25.0,-100.00,NE,45,4.0,7.0,90,0.00,,,0.00,,2013-02-26 00:11:00,
2013-02-25 18:21:00,27.0,25.0,-100.00,ENE,75,4.0,6.0,90,0.00,,,0.00,,2013-02-26 00:21:00,
2013-02-25 18:32:00,27.0,25.0,-100.00,ENE,75,4.0,7.0,91,0.00,,,0.00,,2013-02-26 00:32:00,
2013-02-25 18:41:00,26.0,25.0,-100.00,ESE,110,4.0,7.0,91,0.00,,,0.00,,2013-02-26 00:41:00,
2013-02-25 18:51:00,26.0,23.0,-100.00,ENE,65,2.0,5.0,91,0.00,,,0.00,,2013-02-26 00:51:00,
2013-02-25 19:02:00,26.0,25.0,-100.00,ENE,75,2.0,4.0,92,0.00,,,0.00,,2013-02-26 01:02:00,
2013-02-25 19:11:00,25.0,23.0,-100.00,NE,45,2.0,4.0,92,0.00,,,0.00,,2013-02-26 01:11:00,
2013-02-25 19:21:00,24.0,23.0,-100.00,North,10,2.0,3.0,94,0.00,,,0.00,,2013-02-26 01:21:00,
2013-02-25 19:31:00,23.0,21.0,-100.00,NNE,30,2.0,3.0,96,0.00,,,0.00,,2013-02-26 01:31:00,
2013-02-25 19:41:00,22.0,21.0,-100.00,NNE,25,2.0,3.0,97,0.00,,,0.00,,2013-02-26 01:41:00,
2013-02-25 19:51:00,22.0,21.0,-100.00,NNE,20,2.0,4.0,98,0.00,,,0.00,,2013-02-26 01:51:00,
2013-02-25 20:01:00,22.0,21.0,-100.00,NNE,25,1.0,2.0,99,0.00,,,0.00,,2013-02-26 02:01:00,
2013-02-25 20:11:00,21.0,21.0,-100.00,NNE,15,2.0,4.0,98,0.00,,,0.00,,2013-02-26 02:11:00,
2013-02-25 20:21:00,22.0,21.0,-100.00,North,10,3.0,6.0,99,0.00,,,0.00,,2013-02-26 02:21:00,
2013-02-25 20:41:00,22.0,21.0,-100.00,North,5,2.0,4.0,99,0.00,,,0.00,,2013-02-26 02:41:00,
2013-02-25 20:52:00,22.0,21.0,-100.00,North,350,3.0,4.0,99,0.00,,,0.00,,2013-02-26 02:52:00,
2013-02-25 21:01:00,22.0,21.0,-100.00,North,0,3.0,7.0,99,0.00,,,0.00,,2013-02-26 03:01:00,
2013-02-25 21:21:00,24.0,23.0,-100.00,NE,40,2.0,4.0,99,0.00,,,0.00,,2013-02-26 03:21:00,
2013-02-25 21:32:00,24.0,23.0,-100.00,NNE,25,2.0,4.0,99,0.00,,,0.00,,2013-02-26 03:32:00,
2013-02-25 21:41:00,24.0,23.0,-100.00,North,350,3.0,4.0,99,0.00,,,0.00,,2013-02-26 03:41:00,
2013-02-25 21:52:00,23.0,23.0,-100.00,North,0,4.0,7.0,99,0.00,,,0.00,,2013-02-26 03:52:00,
2013-02-25 22:01:00,23.0,23.0,-100.00,NNW,345,7.0,8.0,99,0.00,,,0.00,,2013-02-26 04:01:00,
2013-02-25 22:11:00,23.0,23.0,-100.00,North,0,4.0,7.0,99,0.00,,,0.00,,2013-02-26 04:11:00,
2013-02-25 22:21:00,23.0,23.0,-100.00,North,355,6.0,7.0,99,0.00,,,0.00,,2013-02-26 04:21:00,
2013-02-25 22:32:00,23.0,23.0,-100.00,North,0,4.0,6.0,99,0.00,,,0.00,,2013-02-26 04:32:00,
2013-02-25 22:42:00,24.0,23.0,-100.00,North,0,2.0,6.0,99,0.00,,,0.00,,2013-02-26 04:42:00,
2013-02-25 22:51:00,24.0,23.0,-100.00,North,0,4.0,6.0,99,0.00,,,0.00,,2013-02-26 04:51:00,
2013-02-25 23:01:00,23.0,23.0,-100.00,NNE,15,6.0,7.0,99,0.00,,,0.00,,2013-02-26 05:01:00,